FENGYUN 1C DEB, 37432

Orbit data source: Space-Track

FENGYUN 1C DEB, 37432 is space debris in SSO originally from a launch on Mon, 10 May 1999 UTC launched from the Taiyaun Space Center, China (TSC). Fengyun 1C debris stems from the Chinese weather satellite Fengyun-1C, which was intentionally destroyed by a Chinese anti-satellite missile in 2007. This event dramatically increased the amount of space debris, with thousands of trackable fragments posing hazards to satellites and human spaceflight. The Fengyun 1C debris cloud has become a focal point in discussions about space sustainability and the need for international regulations to prevent the creation of new debris.

Loading next visibility...
Identifier
37432, 1999-025EHA
Orbit
SSO
Country
Flag of CNCN / PRC
Related business
Manufacturer
Unknown
Mission
Spacecraft
Bus & Motor
Unknown
Mass
Unknown
Launch date (UTC)
1999-05-10 (27 years ago)
Launch vehicle
Unknown
Launch site
Taiyaun Space Center, China (TSC)
Object type
Payload
Rocket body
Debris
Shape & HBR
Unknown shape, 0.1 m
Radar Cross Section
Small (<0.1 m²)

Expand to show TLE details & history
Last TLE update: 6 days ago

TLE from 6 days ago
0 FENGYUN 1C DEB
1 37432U 99025EHA 26248.77413712  .00001118  00000-0  21868-3 0  9997
2 37432  98.1770 261.3170 0178484 180.9331 179.1560 14.55214907122585
Epoch: 2026-09-05T18:34Z
TLE epoch observation values (Epoch: 2026-09-05T18:34:45.447Z)
Latitude
0.00001°
Longitude
-2.25115°
Altitude
838.149 km
Speed
7.367 km/s
True Right ascension
17h 25m 16s
True Declination
0° 00' 00"
Sunlit
Object was in daylight at epoch
Visualization orbit readout
Latitude
Unknown
Longitude
Unknown
Altitude
Unknown
Speed
Unknown
Apparent Right ascension
Unknown
Apparent Declination
Unknown
Sunlit
N/A
Visualization observer readout
Local Sidereal Time
06:48:54
Azimuth
Unknown
Elevation
Unknown
Doppler factor
Unknown
Orbital elements
Apogee altitude
832.188 km
Perigee altitude
579.316 km
Semi-major axis
7,083.889 km
Eccentricity
0.01785
Inclination
98.177°
RAAN
261.317°
Arg. of periapsis
180.9331°
True anomaly
179.18547°
Mean anomaly
179.156°
Eccentric anomaly
179.1708°
Mean motion
3.64029 °/min
Orbital period
98.89 mins
BSTAR
0.00021868
Loading maneuver chart data...
Computing Atmospheric mass density...
Loading historical data...
Loading historical data...
Loading historical data...
Loading historical data...
Loading historical data...
Loading historical data...
Loading historical data...

Documentation

Showing up to 5 results
|